Reflectivity
14 4 4 -1 23 13 17 7 -8 20 4 1 12 24 -16 -20 23 20 16 20 4 10 20 -20 -20 -20 -20 -20 -20 -20 -20 -20 -20 -20 -20 -20 -20 -20 -20 1 -19 -20 -10
7 4 5 -2 -7 23 -20 -20 -17 8 6 -5 -20 -20 -20 -20 1 21 19 11 17 23 16 -1 -17 -20 -20 -20 -20 -20 -20 -20 -20 -20 21 -20 -20 -20 -20 -20 -20 -20 -20
10 4 -3 5 4 1 4 -1 17 -11 4 -19 26 19 -20 -19 -10 4 20 20 25 23 25 -1 -10 -20 -20 -17 -20 -20 -20 -20 -3 -20 -10 -20 -20 -20 -20 -20 -20 -20 -20
4 4 -5 7 6 1 -8 1 4 3 -2 0 3 24 -20 -15 21 16 26 26 25 22 18 23 -0 -11 -16 19 18 4 11 -8 -20 31 5 1 -17 -20 -20 -20 -20 -20 -20
4 -14 -3 -7 -20 3 -15 -15 -13 -20 -20 -20 16 -16 15 8 -3 7 18 19 13 3 14 15 20 5 6 8 6 -20 31 -5 -18 -18 -10 -20 -20 -20 -20 -20 -20 -20 -20
-20 -20 -20 -20 2 3 10 -2 -20 1 -20 -20 -20 -20 26 20 -19 -13 4 -1 -16 -6 -5 -9 18 26 14 -3 -14 -20 -20 -20 26 -19 25 -20 -20 -20 -20 -20 -20 -20 -20
-20 -20 -20 -20 -16 4 9 15 14 11 15 2 1 -1 -6 -20 -20 -13 -20 -20 -20 -20 -19 2 -19 -20 -20 -20 -20 -20 -20 -20 -20 -20 -20 -20 -20 -20 -20 -20 -20 -20 -20
-20 -20 -20 -9 -10 9 16 11 10 7 10 6 5 -11 -20 -20 -20 -20 -20 -20 -20 -20 -20 -20 -20 -20 -20 -20 -20 -20 -20 -20 -20 -20 -20 -20 -20 -20 -20 -20 -20 -20 -20
-20 -20 -20 -10 -20 -20 -12 -16 -20 -20 -20 -20 -8 -20 -20 -20 -20 -20 -20 -20 -20 -20 -20 -20 -9 -20 -1 5 -20 3 -20 -20 -20 -20 -20 -20 -20 -20 -20 -20 -20 -20 -3
-20 -9 9 -20 -5 -2 18 21 -20 -10 26 -20 -20 -20 -20 -20 -20 -20 -20 -20 -20 -20 -20 -20 -1 -17 -10 -11 -19 -17 -19 -20 -20 -20 -20 -20 -20 -20 -18 -20 -15 -17 -20
-20 -20 -20 -13 23 20 15 -18 -17 -5 -20 -20 -20 -20 -20 -20 -20 -20 -20 -20 -20 -20 -20 -20 -20 -15 5 14 6 -2 3 -20 -20 -20 -20 -20 -20 -20 -20 -20 -20 -20 -20
-20 -20 -14 -4 13 8 -3 14 16 7 -17 3 0 6 12 -5 3 -10 -0 -19 -0 -16 0 16 4 13 22 17 11 15 -3 -13 -20 -20 -20 -20 -20 -20 -20 -20 -20 -20 -20
-20 -20 -4 29 33 29 41 39 28 27 32 17 30 33 25 24 27 25 20 27 32 26 24 23 23 23 11 -3 -19 -20 -20 -20 -20 -20 -20 -20 -20 -20 -20 -20 -20 -20 -20
10 14 29 34 35 25 29 26 24 22 23 27 24 16 17 31 31 22 18 25 29 28 22 5 -4 5 21 16 0 -15 -13 -8 -20 -20 -20 -20 -20 -20 -20 -20 -20 -20 -20
-19 3 -6 -8 -20 -20 -14 -15 -7 8 15 24 22 19 15 18 24 3 5 0 1 -0 10 13 11 5 8 6 7 3 -3 -17 -20 -20 -20 -20 -20 -20 -20 -20 -20 -20 -20
-4 -20 -18 -20 -20 -20 -20 -20 -17 -6 5 0 10 23 16 6 1 -2 -20 -20 -20 -20 -20 -7 3 4 1 -0 -8 -19 -16 -19 -20 -20 -20 -20 -20 -20 -20 -20 -20 -20 -20
-20 -20 -20 -2 6 9 -3 -20 -20 -20 -20 -20 -20 -20 -20 -20 -20 -20 -20 -20 -20 -20 -20 -20 -20 -20 -20 -20 -20 -20 -20 -20 -20 -20 -20 -20 -20 -20 -20 -20 -20 -20 -20
-20 -20 -20 -20 -20 -20 -20 -20 -20 -20 -20 -20 -20 -20 -20 -20 -20 -20 -20 -20 -20 -20 -20 -20 -20 -20 -20 -20 -20 -20 -20 -20 -20 -20 -20 -20 -20 -20 -20 -20 -20 -20 -20
-20 -20 -20 -20 -20 -20 -20 -20 -20 -20 -20 -20 -20 -20 -20 -20 -20 -20 -20 -20 -20 -20 -20 -20 -20 -20 -20 -20 -20 -20 -20 -20 -20 -20 -20 -20 -20 -20 -20 -20 -20 -20 -20
-20 -20 -20 -20 -20 -20 -20 -20 -20 -20 -20 -20 -20 -20 -20 -20 -20 -20 -20 -20 -20 -20 -20 -20 -20 -20 -20 -20 -20 -20 -20 -20 -20 -20 -20 -20 -20 -20 -20 -20 -20 -20 -20
-19 -20 -20 -20 -20 -20 -20 -20 -20 -20 -20 -20 -20 -20 -20 -20 -20 -20 -20 -20 -20 -20 -20 -20 -20 -20 -20 -20 -20 -20 -20 -20 -20 -20 -20 -20 -20 -20 -20 -20 -20 -20 -20
-20 -13 -14 -20 -20 -20 -20 -20 -20 -20 -20 -20 -20 -20 -20 -20 -20 -20 -20 -20 -20 -20 -20 -20 -20 -20 -20 -20 -20 -20 -20 -20 -20 -20 -20 -20 -20 -20 -20 -20 -20 -20 -20
-9 -20 -17 -20 -20 -20 -20 -20 -20 -20 -20 -20 -20 -20 -20 -20 -20 -20 -20 -20 -20 -20 -20 -20 -20 -20 -20 -20 -20 -20 -20 -20 -20 -20 -20 -20 -20 -20 -20 -20 -20 -20 -20
-20 -20 -20 -20 -5 -20 -20 -20 -20 -20 -20 -20 -20 -20 -20 -20 -20 -20 -20 -20 -20 -20 -20 -20 -20 -20 -20 -20 -20 -20 -20 -20 -20 -20 -20 -20 -20 -20 -20 -20 -20 -20 -20
-20 -20 -20 -17 -20 -20 -20 -20 -20 -20 -20 -20 -20 -20 -20 -20 -20 -20 -20 -20 -20 -19 -20 -20 -20 -20 -20 -20 -20 -20 -20 -20 -20 -20 -20 -20 -20 -20 -20 -20 -20 -20 -20
-20 -20 -20 -20 -20 -20 -20 -20 -20 -20 -20 -20 -20 -20 -20 -20 -20 -20 -20 -20 -20 -20 -20 -20 -20 -20 -20 -20 -20 -20 -20 -20 -20 -20 -20 -20 -20 -20 -20 -20 -20 -20 -20
Wind_Speed
3 5 3 5 6 3 6 6 6 7 9 9 8 9 10 9 5 4 5 6 5 5 5 6 6 3 6 4 4 4 4 4 6 7 4 5 4 5 6 6 8 9 10
3 4 5 6 6 5 4 5 4 4 6 9 8 8 8 9 8 5 3 1 3 3 5 4 4 4 4 4 5 4 3 2 5 3 4 5 6 6 7 6 5 8 8
5 5 5 6 6 5 5 4 5 6 6 5 4 9 6 6 7 7 5 4 3 4 4 4 4 3 3 3 3 1 3 3 4 5 4 4 6 6 7 6 5 6 5
5 5 8 7 6 5 6 7 6 7 7 7 6 7 7 6 5 6 4 3 3 3 4 5 6 5 2 1 1 1 3 5 3 1 3 5 5 2 3 2 5 1 3
6 6 9 9 6 8 9 8 9 9 8 5 7 4 6 6 4 6 6 5 5 6 8 8 10 10 16 12 4 5 1 3 5 5 5 6 5 4 2 1 1 1 5
8 8 9 9 8 8 9 10 9 9 9 6 5 7 6 4 2 6 8 8 8 9 10 7 6 11 15 16 17 20 15 5 5 3 3 8 5 3 2 2 2 2 2
9 10 10 9 9 8 6 7 7 7 6 6 5 6 7 7 7 6 7 8 9 9 8 8 8 7 7 10 9 13 15 15 13 7 7 7 6 5 4 2 5 4 3
11 11 10 10 7 6 6 6 5 5 6 6 7 9 10 10 10 8 12 12 11 11 9 9 8 8 7 6 9 10 12 12 10 9 9 8 8 6 5 4 3 4 6
12 12 11 11 9 7 8 8 7 8 8 9 10 11 12 12 12 10 10 10 11 11 10 10 8 8 7 10 7 9 10 11 14 16 16 14 12 11 9 5 4 6 6
11 8 13 11 10 10 9 8 9 8 9 10 12 13 13 13 18 17 8 8 10 8 9 10 19 10 10 12 6 6 7 6 6 6 6 6 3 7 5 6 5 5 6
14 14 13 12 11 11 11 10 10 11 12 13 14 13 14 14 17 19 16 9 7 8 8 8 9 15 14 14 14 8 7 6 5 3 3 1 0 1 3 5 3 6 6
16 14 13 13 9 10 13 12 13 12 13 12 11 9 9 11 15 17 18 17 12 9 7 7 7 14 13 13 9 8 6 2 2 4 3 1 4 5 5 4 5 5 6
16 16 13 12 12 12 15 11 9 9 7 8 6 8 7 6 7 15 15 15 14 9 5 6 7 7 10 10 8 4 9 2 3 4 4 4 5 5 6 3 4 4 8
17 16 11 12 13 11 9 8 8 7 7 6 6 6 5 5 5 4 4 5 10 7 9 5 7 7 8 2 5 1 4 6 6 4 4 4 3 4 4 4 5 5 5
15 13 12 11 12 11 10 7 7 7 6 6 5 4 5 6 3 4 6 6 6 4 2 3 3 3 1 2 4 4 4 4 4 4 4 4 4 5 5 5 5 5 6
17 12 11 11 12 10 11 11 18 14 12 12 13 10 10 9 6 9 9 8 5 4 2 4 3 3 3 4 4 3 4 4 5 4 4 5 5 6 6 5 5 5 6
16 14 11 9 8 8 8 10 11 11 13 13 12 14 13 9 7 7 7 6 1 7 4 5 4 4 4 4 3 4 4 5 4 4 4 5 5 5 5 5 5 5 6
15 13 12 11 10 9 9 9 8 9 9 9 5 7 7 7 5 2 3 4 5 4 3 3 3 2 2 3 4 5 5 4 3 4 4 5 5 6 6 6 6 6 6
11 9 9 8 8 7 7 7 7 7 7 8 8 7 5 6 7 5 8 3 4 4 4 4 4 4 3 3 4 4 5 5 5 6 5 5 6 6 6 6 5 2 4
9 7 6 8 7 7 5 5 6 5 4 3 4 5 6 8 3 3 3 3 3 4 4 4 4 4 4 4 4 4 4 2 4 5 6 6 6 6 6 6 6 6 6
8 7 5 5 6 5 4 4 3 2 1 3 4 8 9 6 3 3 3 4 4 5 4 4 4 4 2 1 4 4 4 4 4 5 5 6 5 6 6 6 6 6 6
4 6 5 3 6 8 6 5 3 2 2 2 5 5 5 5 3 3 4 4 5 4 4 4 5 4 4 4 3 4 3 4 5 5 6 6 6 6 6 6 6 6 6
3 1 3 3 4 6 6 4 3 3 5 4 3 3 2 3 3 3 3 4 4 4 3 3 4 4 2 1 3 3 5 5 5 6 6 7 6 6 6 6 7 7 7
1 1 3 5 5 5 5 5 5 5 1 3 3 2 1 1 1 3 3 3 3 3 2 3 3 4 4 6 5 5 3 3 6 7 9 7 6 5 7 6 6 8 8
1 2 3 4 4 6 4 3 4 4 4 3 3 1 2 1 0 1 1 1 2 3 3 4 4 7 8 9 9 9 10 8 5 6 7 8 7 8 7 6 7 8 8
3 1 1 1 2 3 4 4 3 3 3 3 2 2 2 2 1 1 1 1 3 4 3 4 6 7 8 6 7 12 7 5 1 2 7 7 6 6 6 8 9 7 8
Wind_Direction
161 118 135 121 125 79 71 70 73 101 112 118 122 119 134 141 140 165 191 180 189 192 241 213 215 226 264 238 229 235 229 229 244 116 82 108 95 73 103 120 110 99 86
128 104 110 163 145 140 97 93 111 102 125 132 123 104 122 146 154 160 184 109 205 211 228 226 241 240 238 247 240 223 215 176 268 153 85 112 92 101 97 108 137 97 108
161 130 110 172 163 169 147 124 125 126 139 114 135 110 99 106 126 128 111 73 39 5 343 323 289 299 263 277 276 58 353 321 264 275 121 118 121 127 109 93 103 113 108
200 154 131 145 134 139 148 153 143 147 162 150 113 112 104 97 93 108 128 134 108 59 41 32 20 21 332 328 71 274 242 243 212 129 104 121 111 80 88 156 123 97 127
201 175 148 141 134 130 130 123 122 117 120 132 126 143 150 153 136 153 147 141 123 94 70 66 61 70 66 48 64 47 2 185 177 159 163 153 149 141 106 88 133 292 135
195 182 157 158 147 139 141 137 137 133 128 127 129 131 127 89 79 119 149 138 126 120 111 108 111 86 72 72 72 62 46 30 38 106 138 83 98 123 77 11 327 306 234
199 174 168 169 155 156 151 151 140 131 125 102 91 103 88 70 34 89 117 120 115 106 98 117 127 98 99 92 97 90 66 56 49 64 83 71 84 41 27 339 21 344 330
198 178 171 175 151 147 144 112 119 123 110 99 82 76 75 63 40 85 100 112 108 100 94 98 98 86 47 82 86 79 68 53 41 72 80 80 72 61 38 40 359 300 241
193 184 183 114 117 118 114 119 112 109 102 87 79 79 80 66 21 35 99 90 86 80 68 39 67 68 17 347 95 95 91 89 73 74 83 83 67 42 21 327 1 324 314
182 85 89 106 112 109 97 86 85 86 97 93 85 80 68 66 45 39 72 96 94 90 67 67 42 38 22 5 93 111 112 102 98 104 104 95 73 84 49 41 352 319 312
90 86 87 90 94 94 90 79 77 86 94 92 92 79 68 52 51 50 46 63 77 76 71 63 48 47 41 40 40 56 61 93 104 93 63 56 185 248 23 26 2 305 312
88 86 87 87 90 90 92 90 87 86 87 81 79 72 47 48 45 55 58 59 55 78 68 64 76 61 53 41 67 62 92 155 153 185 231 321 333 343 358 356 332 317 323
93 92 89 94 92 102 102 93 83 80 80 85 70 81 59 34 48 57 70 78 81 81 87 107 113 140 132 99 63 358 258 314 329 314 352 354 347 357 303 288 257 229 235
91 90 98 96 90 81 83 74 83 85 82 74 79 78 76 65 51 53 75 94 111 127 143 102 71 78 61 54 204 151 32 10 347 5 340 359 338 339 342 346 321 327 308
91 92 90 86 87 80 62 66 78 60 83 104 97 113 113 98 74 42 58 80 75 53 69 96 89 66 45 37 76 24 25 13 17 15 357 354 349 341 351 340 329 319 310
107 102 99 100 97 92 92 81 49 61 59 63 57 80 71 84 91 73 67 60 49 330 92 70 75 72 47 38 28 44 42 33 15 3 2 2 353 339 357 315 326 329 323
103 107 104 98 97 100 113 114 105 82 64 55 66 67 68 93 92 89 107 119 6 300 79 62 48 46 57 48 26 24 16 38 302 353 352 353 343 334 304 335 335 324 324
111 125 123 128 136 148 118 121 125 118 116 123 88 97 96 99 100 141 240 277 159 136 93 57 66 58 55 21 14 3 355 338 357 352 342 344 338 331 322 330 324 356 337
137 127 127 127 108 106 111 106 102 100 99 114 136 164 151 161 166 198 271 26 29 44 31 50 27 15 354 350 1 353 339 10 347 324 338 340 340 328 328 330 324 218 274
97 51 111 116 156 131 114 100 84 97 106 102 98 108 147 199 172 79 56 28 20 8 19 6 32 10 4 0 338 336 327 322 342 339 347 337 336 323 322 322 322 326 325
135 140 12 167 108 102 114 115 115 72 116 71 82 56 11 323 47 55 17 33 9 356 358 359 339 20 323 346 3 332 325 328 351 340 335 330 327 320 324 320 314 319 321
146 149 180 174 145 146 164 186 184 81 75 140 113 118 278 273 39 33 20 6 5 357 359 343 321 358 2 19 350 343 327 342 1 347 331 329 329 329 328 319 316 320 322
111 114 142 114 124 124 169 167 186 186 175 170 160 142 149 38 26 18 13 16 4 4 14 338 319 314 327 313 299 313 326 1 354 346 334 327 327 346 327 311 322 318 327
95 216 183 157 156 155 185 204 104 37 46 158 152 136 97 19 20 87 332 7 2 359 317 312 319 313 315 286 287 254 242 45 347 336 343 315 322 325 328 317 318 327 311
115 192 181 115 174 227 126 171 151 156 170 174 163 189 154 224 81 267 346 4 326 303 359 337 339 347 317 316 302 301 101 87 353 329 305 320 321 314 310 315 327 320 317
156 183 269 230 184 173 164 160 163 171 177 184 183 219 214 207 193 288 188 315 332 7 341 16 3 344 331 307 36 93 112 116 346 307 311 297 308 319 334 329 318 308 308